Regional Weather Roundup
Issued by NWS

Home | Current Version | Previous Version | Text Only | Print | Product List | Glossary On
Versions: 1 2 3 4 5 6 7 8 9 10 11 12 13 14 15 16 17 18 19 20 21 22 23 24 25 26 27 28 29 30 31 32 33 34 35 36 37 38 39 40 41 42 43 44 45 46 47 48 49 50
011
ASUS42 KFFC 222110
RWRGA
WEATHER ROUNDUP FOR GEORGIA
NATIONAL WEATHER SERVICE PEACHTREE CITY GA
400 PM EST SUN JAN 22 2017

NOTE: "FAIR" INDICATES FEW OR NO CLOUDS BELOW 12,000 FEET WITH NO
SIGNIFICANT WEATHER AND/OR OBSTRUCTIONS TO VISIBILITY.

* = USE WITH CAUTION. THE STATIONS MARKED WITH AN ASTERISK MAY NOT
REPORT WEATHER SUCH AS PRECIPITATION, FOG, OR THUNDER AND ARE NOT
QUALITY CONTROLLED BY NWS.

THE REMARK "TC" DENOTES TEMPERATURE READING IN DEGREES CELSIUS.

GAZ001>058-222200-
NORTH GEORGIA

CITY           SKY/WX    TMP DP  RH WIND       PRES   REMARKS
ATLANTA        CLOUDY    61  60  97 E21G33    29.19F
ATHENS         LGT RAIN  60  60 100 E10       29.31F FOG
CHAMBLEE       CLOUDY    60  58  92 NE12G21   29.19F
PEACHTREE CITY CLOUDY    62  59  90 E15G26    29.16F
ROME           RAIN      61  57  87 NE8       29.23F FOG
WEST ATLANTA   LGT RAIN  61  58  90 E14G24    29.19F
GAINESVILLE    LGT RAIN  57  57 100 E15G21    29.31F VSB 3/4
CARTERSVILLE   RAIN      59  57  93 NE10      29.22F FOG


CITY           SKY/WX    TMP DP  RH WIND       PRES   REMARKS
DALTON*        CLOUDY    61  55  82 CALM      29.26F
LAWRENCEVILLE* LGT RAIN  61  59  94 E9        29.31  FOG
MARIETTA       LGT RAIN  59  58  96 E12G20    29.19F FOG
KENNESAW*      RAIN      59  57  94 E13G22    29.19F FOG
CANTON*        LGT RAIN  57  54  88 NE14G25   29.25F
$$

GAZ059>098-102>109-222200-
CENTRAL GEORGIA

CITY           SKY/WX    TMP DP  RH WIND       PRES   REMARKS
AUGUSTA-BUSH   TSTM      64  61  90 SE14G20   29.39F FOG
AUGUSTA-DANIEL LGT RAIN  63  59  87 SE6       29.39F
COLUMBUS       LGT RAIN  64  61  90 SW31G41   29.19R FOG
MACON          LGT RAIN  62  60  93 E13       29.23F FOG
ROBINS AFB     TSTM      63  61  94 E8        29.25F FOG


CITY           SKY/WX    TMP DP  RH WIND       PRES   REMARKS
LAGRANGE*      LGT RAIN  65  65 100 S12G22    29.16R
SYLVANIA*      LGT RAIN N/A N/A N/A SE6       29.45F
MILLEDGEVILLE* TSTM      63  63 100 SE5       29.31F
$$

GAZ099>101-110>166-222200-
SOUTH GEORGIA

CITY           SKY/WX    TMP DP  RH WIND       PRES   REMARKS
SAVANNAH       LGT RAIN  63  60  90 SE12      29.46F
VALDOSTA       CLOUDY    76  69  79 S21G36    29.32F
ALMA           CLOUDY    64  63  96 SE12G20   29.35F
ST SIMONS      CLOUDY    63  63 100 E12G21    29.46F
FT STEWART     CLOUDY    63  61  94 SE9       29.42F
ALBANY         CLOUDY    69  67  93 W9G21     29.27R
HUNTER AFB     PTSUNNY   63  63 100 SE9       29.44F
MOODY AFB      LGT RAIN  75  68  78 S28G36    29.28F
BRUNSWICK      CLOUDY    63  63 100 SE10      29.46F


CITY           SKY/WX    TMP DP  RH WIND       PRES   REMARKS
BAINBRIDGE*    CLOUDY    73  68  83 SW17G31   29.27R
MOULTRIE*      TSTM      72  68  88 SW17G31   29.27F
VIDALIA*       CLOUDY    64  64 100 E13       29.35F
WAYCROSS*      CLOUDY    67  67 100 SE10      29.38F
DOUGLAS*       CLOUDY    64  63  94 SE13G20   29.33F
$$




USA.gov is the U.S. government's official web portal to all federal, state and local government web resources and services.